SL-16 DEB *

Satellite information

Favourite Embed

Satellite Type and Status

DEBRISIN ORBIT

Key statistics

Satellite SL-16 DEB * at a glance.

Uptime

11736

Days in orbit

Revolutions

≈ 14.2

Per day

Orbit

LEO

Low Earth Orbit

Inclination

71.0

Latest

Satellite identification and parameters

Extended collection of information and parameters for SL-16 DEB *.

Object identification

Identified? True

Debris? True

Object name: SL-16 DEB *

International designator: 1993-016DK

Object number (NORAD): 42255

Object ID (CCSDS): 42255

Country: COMMONWEALTH OF INDEPENDENT STATES (CIS)

Current information (Y/N): Y

RCS size: SMALL

Orbital parameters

Period: 101.245 minutes

Inclination: 71.0076 deg

SMA: 7195.725 km

Apoapsis: 823.856 km

Periapsis: 811.325 km

RAAN: 67.9135 deg

Eccentricy: 0.0008707

Argument of periapsis: 5.9829 deg

Mean anomaly: 146.3571 deg

Mean motion: 14.22298959 rev/day

Mean motion (dot): 0.00001023 rev/day2

B* drag term: 0.00048182 1/REarth

Two-line elements (TLE)

Creation date: May 12, 2025, 7:41 p.m.

Reference frame: TEME

Reference center: EARTH

Epoch: May 12, 2025, 6:08 a.m. UTC

TLE line 0: 0 SL-16 DEB *

TLE line 1: 1 42255U 93016DK 25132.25623163 .00001023 00000-0 48182-3 0 9990

TLE line 2: 2 42255 71.0076 67.9135 0008707 5.9829 146.3571 14.22298959594014

Live tracking on map

Real-time ground track for satellite SL-16 DEB *.

In-orbit conjunctions

A list of the most updated potential collisions computed for object SL-16 DEB *.

Target Orbit TCA Probability of collision Miss distance Type
CZ-6A DEB SSO 2025-02-11 17:50:38 0.000102565 125.0 (m) DEBRIS
CZ-6A DEB LEO 2025-02-08 12:52:49 0.0001945476 730.0 (m) DEBRIS

Associated space launch

Second generation ELING satellite

SL-16 DEB * was lifted into orbit during the mission ‘Zenit-2 | Tselina-2 13’, on board a Zenit-2 space rocket.

The launch took place on March 26, 1993, 2:21 a.m. from 45/1.

For more information about the launch, click the button.

Launch to space Zenit-2 | Tselina-2 13
Zenit-2 | Tselina-2 13

Agency: N/A

Status: Launch Successful

Launch date: March 26, 1993, 2:21 a.m. UTC

Rocket: Zenit-2

Launch pad: 45/1

Location: Baikonur Cosmodrome, Republic of Kazakhstan

...

Latest news about this satellite

There are no fresh news available about this satellite. Check back as we update our databases every day.


Newsletter sign-up

Weekly statistics, charts and insights to help you stay on top of the space industry.